Back to catalog

CHINASAT 9B

AliveCommunicationsGEO
NORAD 49125·PAYLOAD·🇨🇳 China

Launched Sep 9, 2021 from Xichang Satellite Launch Center

Loading…

TLE

FreshSource: Space-Track

Epoch: Sep 14, 2026, 14:17 UTC

1 49125U 21080A   26257.59520777 -.00000321  00000-0  00000-0 0  9993
2 49125   0.0488 255.1564 0003327 285.5938 128.5098  1.00273265 18543

Track CHINASAT 9B in real time with AllMySat

Download on the App Store